EW9311 Weather Reports


Display with metric or nautical units.
time (UTC)temp
F
wind
direction
speed
MPH
gust
MPH
rain 1hr
in
rain 24hr
in
rain mn
in
humidity
%
barometer
mb
20260508113034 38 0 0.0 0.0 0.00 0.00 0.00 83 1014.7
20260508111529 38 0 0.0 0.0 0.00 0.00 0.00 83 1015.0
20260508110032 38 0 0.0 6.0 0.00 0.00 0.00 82 1015.1
20260508104528 39 0 0.0 0.0 0.00 0.00 0.00 82 1015.3
20260508103029 39 0 0.0 0.0 0.00 0.00 0.00 81 1015.4
20260508101542 39 0 0.0 0.0 0.00 0.00 0.00 79 1015.5
20260508100031 40 0 0.0 0.0 0.00 0.00 0.00 77 1015.5
20260508094530 40 0 0.0 0.0 0.00 0.00 0.00 76 1015.6
20260508093031 40 0 0.0 0.0 0.00 0.00 0.00 73 1015.5
20260508091554 41 0 0.0 2.0 0.00 0.00 0.00 71 1015.6
20260508090032 41 0 0.0 0.0 0.00 0.00 0.00 66 1015.7
20260508084532 41 0 0.0 7.0 0.00 0.01 0.00 66 1015.6
20260508083037 42 0 0.0 0.0 0.00 0.01 0.00 64 1015.7
20260508081529 43 0 0.0 8.0 0.00 0.01 0.00 59 1015.8
20260508080028 43 186 0.0 10.0 0.00 0.01 0.00 60 1016.1
20260508074530 42 0 0.0 0.0 0.00 0.06 0.01 67 1016.1
20260508073035 43 0 0.0 0.0 0.00 0.06 0.01 61 1016.3
20260508071532 43 0 0.0 5.0 0.00 0.06 0.01 59 1016.5
20260508070032 43 0 0.0 1.0 0.00 0.06 0.01 59 1016.5
20260508064532 43 0 0.0 3.0 0.00 0.11 0.01 60 1016.5
20260508063055 44 121 0.0 11.0 0.00 0.11 0.01 60 1016.4
20260508061531 44 0 0.0 12.0 0.00 0.11 0.01 58 1016.5
20260508060029 44 0 1.0 13.0 0.00 0.11 0.01 59 1016.4
20260508054532 45 162 1.0 9.0 0.00 0.14 0.01 58 1016.5
20260508053043 45 212 0.0 7.0 0.00 0.14 0.01 57 1016.4
20260508051537 45 0 0.0 8.0 0.00 0.14 0.01 59 1016.6
20260508050030 45 0 0.0 10.0 0.00 0.14 0.01 59 1016.6
20260508044530 46 0 0.0 4.0 0.00 0.22 0.01 58 1016.8
20260508043029 46 0 0.0 1.0 0.00 0.22 0.01 57 1016.7
20260508041532 46 0 0.0 1.0 0.00 0.22 0.01 57 1017.0
20260508040031 46 0 0.0 6.0 0.00 0.22 0.01 57 1017.1
20260508034530 46 0 2.0 9.0 0.00 0.25 0.01 57 1017.1
20260508033034 46 0 0.0 8.0 0.00 0.25 0.01 58 1017.3
20260508031529 45 0 0.0 0.0 0.00 0.25 0.01 61 1017.4
20260508030036 44 0 0.0 0.0 0.00 0.25 0.01 70 1017.5
20260508024531 45 0 0.0 6.0 0.00 0.28 0.01 67 1017.5
20260508023034 44 0 0.0 0.0 0.00 0.28 0.01 71 1017.8
20260508021533 44 0 0.0 0.0 0.00 0.28 0.01 71 1017.9
20260508020030 44 0 0.0 0.0 0.00 0.28 0.01 70 1018.0
20260508014531 44 0 0.0 5.0 0.00 0.28 0.01 70 1018.1
20260508013030 44 0 0.0 0.0 0.00 0.28 0.01 69 1018.2
20260508011532 44 0 0.0 0.0 0.00 0.28 0.01 68 1018.2
20260508010038 44 340 0.0 7.0 0.00 0.28 0.01 69 1018.2
20260508004531 45 0 0.0 1.0 0.00 0.28 0.01 66 1018.3
20260508003029 47 0 0.0 3.0 0.00 0.28 0.01 57 1018.3
20260508001530 47 0 0.0 7.0 0.00 0.28 0.01 57 1018.4
20260508000029 47 0 0.0 11.0 0.00 0.28 0.01 57 1018.6
20260507234530 47 144 1.0 17.0 0.00 0.28 0.01 57 1018.7
20260507233038 47 0 0.0 10.0 0.00 0.28 0.01 57 1018.7
20260507231531 48 0 0.0 9.0 0.00 0.28 0.01 54 1018.8
20260507230045 47 0 0.0 10.0 0.00 0.28 0.01 56 1019.0
20260507224535 46 144 1.0 19.0 0.00 0.28 0.01 59 1019.2
20260507223104 47 127 3.0 17.0 0.00 0.28 0.01 58 1019.1
20260507221531 47 132 2.0 13.0 0.00 0.28 0.01 58 1019.2
20260507220028 47 0 2.0 16.0 0.00 0.28 0.01 60 1019.2
20260507214530 46 148 3.0 16.0 0.00 0.28 0.01 61 1019.3
20260507213030 45 106 3.0 15.0 0.00 0.28 0.01 62 1019.5
20260507211528 46 130 1.0 15.0 0.00 0.28 0.01 60 1019.5
20260507210037 46 209 1.0 10.0 0.00 0.28 0.01 59 1019.7
20260507204533 46 0 0.0 10.0 0.00 0.28 0.01 61 1019.6
20260507203036 46 113 1.0 10.0 0.00 0.28 0.01 62 1019.8
20260507201534 46 149 0.0 10.0 0.00 0.28 0.01 56 1019.9
20260507200049 46 0 0.0 6.0 0.00 0.28 0.01 57 1019.8
20260507194531 46 0 0.0 9.0 0.00 0.28 0.01 57 1019.9
20260507193040 45 175 2.0 10.0 0.00 0.28 0.01 58 1019.9
20260507191529 45 182 3.0 9.0 0.00 0.28 0.01 59 1020.0
20260507190036 44 189 0.0 5.0 0.00 0.28 0.01 62 1020.1
20260507184528 44 155 0.0 6.0 0.00 0.28 0.01 61 1020.1
20260507183037 44 0 1.0 6.0 0.00 0.28 0.01 60 1020.2
20260507181533 45 0 0.0 11.0 0.00 0.28 0.01 61 1020.1
20260507180030 46 194 1.0 8.0 0.00 0.28 0.01 57 1020.0
20260507174537 44 0 0.0 12.0 0.00 0.28 0.01 67 1020.0
20260507173028 43 257 2.0 7.0 0.00 0.28 0.01 74 1020.1
20260507171531 42 234 4.0 9.0 0.00 0.28 0.01 75 1020.1
20260507170030 41 0 1.0 7.0 0.00 0.28 0.01 79 1020.1
20260507164529 40 219 1.0 5.0 0.00 0.28 0.01 84 1020.2
20260507163031 40 209 0.0 6.0 0.00 0.28 0.01 83 1020.4
20260507161531 39 0 1.0 9.0 0.00 0.28 0.01 84 1020.4
20260507160030 39 217 2.0 8.0 0.00 0.28 0.01 83 1020.1
20260507154530 39 223 0.0 8.0 0.00 0.28 0.01 84 1020.4
20260507153035 39 218 1.0 7.0 0.00 0.28 0.01 87 1020.3
20260507151529 38 216 1.0 8.0 0.00 0.28 0.01 88 1020.3
20260507150032 37 180 1.0 5.0 0.00 0.28 0.01 90 1020.2
20260507144531 37 0 0.0 0.0 0.00 0.28 0.01 90 1020.2
20260507143027 37 0 0.0 3.0 0.00 0.28 0.01 89 1020.2
20260507141527 37 121 0.0 4.0 0.00 0.28 0.01 88 1020.2
20260507140033 37 197 1.0 2.0 0.00 0.28 0.01 86 1020.3
20260507134529 38 0 0.0 9.0 0.00 0.28 0.01 85 1020.3
20260507133028 38 267 4.0 13.0 0.00 0.28 0.01 84 1020.4
20260507131529 38 270 1.0 4.0 0.00 0.28 0.01 84 1020.2
20260507130052 38 251 2.0 9.0 0.00 0.28 0.01 82 1020.1
20260507124529 38 246 3.0 9.0 0.00 0.28 0.01 81 1020.1
20260507123030 38 0 0.0 9.0 0.00 0.28 0.01 82 1020.1
20260507121528 38 195 3.0 9.0 0.00 0.28 0.01 82 1020.3
20260507120036 38 203 3.0 7.0 0.00 0.28 0.01 83 1020.3
20260507114527 39 228 1.0 11.0 0.00 0.28 0.01 83 1020.3